User: anonymous   Login
Location: Unspecified
(35.7250°N, 0.0000°E)
Time: 08:40:26
(UTC+00:00)
Language:

Courier 1B - Orbit

View from above orbital plane
View from above orbital plane
View from above satellite
View from above satellite

Ground track
Ground track

The orbit data is extracted from the following two-line orbital elements,

1    58U 60013A   19177.17126516  .00000084  00000-0  39937-6 0  9996
2    58  28.3277 107.2068 0164894 351.3055   8.4652 13.46317745890960
Epoch (UTC): 26 June 2019 04:06:37
Eccentricity: 0.0164894
inclination: 28.3277°
perigee height: 963 km
apogee height: 1209 km
right ascension of ascending node: 107.2068°
argument of perigee: 351.3055°
revolutions per day: 13.46317745
mean anomaly at epoch: 8.4652°
orbit number at epoch: 89096

The dashed part of the orbit path shows where the satellite is in the earth's shadow,  

DLR